カタログに戻る

COSMOS 2499 DEB

運用中PO
NORAD 49927·DEBRIS·🇷🇺 Russia

打ち上げ May 23, 2014 から Plesetsk Cosmodrome

Loading…

次のパス (今後24時間)

TLE

最新Source: Space-Track

元期: Sep 14, 2026, 01:41 UTC

1 49927U 14028J   26257.07036064  .00002821  00000-0  79507-2 0  9997
2 49927  82.4780 177.8828 0307798  61.5310 301.6440 12.96023251229577

AllMySatでCOSMOS 2499 DEBをリアルタイム追跡

Download on the App Store